Location: Unspecified
(0.0000°N, 0.0000°E)
Time: 05:28:44
(UTC+00:00)

Hubble Space Telescope - Visible Passes

Search period start: 26 March 2017 00:00
Search period end: 05 April 2017 00:00
Orbit: 538 x 542 km, 28.5° (Epoch: 24 March)

Date Brightness Start Highest point End Pass type
(mag) Time Alt. Az. Time Alt. Az. Time Alt. Az.
02 Apr 3.0 18:49:39 10° SSE 18:50:22 10° SSE 18:51:06 10° SE visible
03 Apr 2.8 18:38:10 10° S 18:40:27 14° SSE 18:42:34 11° ESE visible
03 Apr 3.7 20:17:34 10° WSW 20:17:58 12° WSW 20:17:58 12° WSW visible
04 Apr 2.4 18:27:28 10° SSW 18:30:30 19° SSE 18:33:32 10° ESE visible
04 Apr 3.1 20:07:36 10° WSW 20:09:08 21° WSW 20:09:08 21° WSW visible
